Overview Statistics Trail Chart Weather Telemetry Raw packets
 

This is the latest recevied weather packets stored in our database for station/object 9A7DI-13. If no packets are shown the sender has not sent any weather packets the latest 10 day(s).

<< 26 27 28 29 30 31 32 >>
Time Temp. Humidity Pressure Rain* Wind** Luminosity Snow
1788272207 27.78° C 32% 1027.7 hPa - - - -
1788271607 27.78° C 32% 1027.8 hPa - - - -
1788271007 27.78° C 33% 1027.9 hPa - - - -
1788269824 27.78° C 32% 1028 hPa - - - -
1788269207 27.78° C 32% 1028.2 hPa - - - -
1788268607 27.78° C 34% 1028.2 hPa - - - -
1788268007 27.78° C 35% 1028.3 hPa - - - -
1788267407 27.78° C 33% 1028.4 hPa - - - -
1788266807 27.78° C 36% 1028.5 hPa - - - -
1788266207 27.78° C 36% 1028.7 hPa - - - -
1788265615 27.78° C 35% 1028.8 hPa - - - -
1788264407 27.78° C 37% 1029.1 hPa - - - -
1788263808 27.78° C 36% 1029.1 hPa - - - -
1788263207 27.78° C 37% 1029.3 hPa - - - -
1788262607 27.78° C 41% 1029.1 hPa - - - -
1788262007 27.22° C 39% 1029.3 hPa - - - -
1788261407 27.78° C 40% 1029.5 hPa - - - -
1788260807 27.78° C 41% 1029.6 hPa - - - -
1788260207 27.78° C 40% 1029.6 hPa - - - -
1788259607 27.78° C 41% 1029.6 hPa - - - -
1788259007 27.78° C 40% 1029.7 hPa - - - -
1788258407 27.78° C 41% 1029.8 hPa - - - -
1788257807 27.78° C 40% 1030 hPa - - - -
1788257207 27.22° C 43% 1030 hPa - - - -
1788256607 27.78° C 42% 1030 hPa - - - -

* Rain since midnight (hover to see other rain measurements)
** Current wind speed in m/s (hover to see current wind gust speed)